User: anonymous
Location: Caltech
(34.1382°N, 118.1253°W)
Time: 04:10:24
(UTC-07:00)
Language:

Meteor 1-11 Rocket - Orbit

View from above orbital plane
View from above orbital plane
View from above satellite
View from above satellite

Ground track
Ground track

The orbit data is extracted from the following two-line orbital elements,

1 05918U 72022B   14207.14791972  .00000130  00000-0  70766-4 0  2188
2 05918 081.2363 268.3634 0059208 057.8306 000.9982 14.05713809169487
Epoch (UTC): 26 July 2014 03:33:00
Eccentricity: 0.0059208
inclination: 81.2363°
perigee height: 831 km
apogee height: 917 km
right ascension of ascending node: 268.3634°
argument of perigee: 57.8306°
revolutions per day: 14.05713809
mean anomaly at epoch: 0.9982°
orbit number at epoch: 16948

The dashed part of the orbit path shows where the satellite is in the earth's shadow,  

DLR